TimeCST,TemperatureF,Dew PointF,Humidity,Sea Level PressureIn,VisibilityMPH,Wind Direction,Wind SpeedMPH,Gust SpeedMPH,PrecipitationIn,Events,Conditions,WindDirDegrees,DateUTC
12:20 AM,15.8,15.8,100,29.90,9.0,Calm,Calm,-,N/A,,Clear,0,2013-01-08 06:20:00
12:40 AM,17.6,17.6,100,29.89,10.0,South,5.8,-,N/A,,Clear,170,2013-01-08 06:40:00
1:00 AM,14.0,14.0,100,29.89,10.0,Calm,Calm,-,N/A,,Clear,0,2013-01-08 07:00:00
1:20 AM,12.2,12.2,100,29.89,10.0,East,8.1,-,N/A,,Clear,80,2013-01-08 07:20:00
1:40 AM,10.4,10.4,100,29.88,10.0,East,6.9,-,N/A,,Clear,80,2013-01-08 07:40:00
2:00 AM,12.2,12.2,100,29.88,10.0,ESE,5.8,-,N/A,,Clear,120,2013-01-08 08:00:00
2:20 AM,14.0,14.0,100,29.87,10.0,SSE,5.8,-,N/A,,Clear,160,2013-01-08 08:20:00
2:40 AM,14.0,14.0,100,29.87,10.0,SSE,5.8,-,N/A,,Clear,160,2013-01-08 08:40:00
3:00 AM,10.4,10.4,100,29.87,10.0,South,6.9,-,N/A,,Clear,170,2013-01-08 09:00:00
3:20 AM,10.4,10.4,100,29.86,10.0,SSE,5.8,-,N/A,,Clear,150,2013-01-08 09:20:00
3:40 AM,14.0,14.0,100,29.85,4.0,SE,6.9,-,N/A,,Clear,130,2013-01-08 09:40:00
4:00 AM,12.2,12.2,100,29.85,3.0,East,3.5,-,N/A,,Clear,90,2013-01-08 10:00:00
4:20 AM,14.0,14.0,100,29.84,4.0,ESE,4.6,-,N/A,,Clear,110,2013-01-08 10:20:00
4:40 AM,12.2,12.2,100,29.83,8.0,East,3.5,-,N/A,,Clear,100,2013-01-08 10:40:00
5:00 AM,10.4,10.4,100,29.83,10.0,SE,8.1,-,N/A,,Clear,130,2013-01-08 11:00:00
5:20 AM,15.8,15.8,100,29.82,10.0,SSE,8.1,-,N/A,,Clear,150,2013-01-08 11:20:00
5:40 AM,15.8,15.8,100,29.82,10.0,SSE,8.1,-,N/A,,Clear,160,2013-01-08 11:40:00
6:00 AM,15.8,15.8,100,29.82,10.0,SSE,8.1,-,N/A,,Clear,160,2013-01-08 12:00:00
6:20 AM,15.8,15.8,100,29.80,10.0,SSE,11.5,-,N/A,,Clear,150,2013-01-08 12:20:00
6:40 AM,17.6,17.6,100,29.80,10.0,SSE,11.5,-,N/A,,Clear,160,2013-01-08 12:40:00
7:20 AM,17.6,17.6,100,29.78,10.0,South,6.9,-,N/A,,Mostly Cloudy,170,2013-01-08 13:20:00
7:40 AM,17.6,17.6,100,29.80,10.0,SSW,5.8,-,N/A,,Overcast,200,2013-01-08 13:40:00
8:00 AM,17.6,17.6,100,29.80,10.0,SSW,4.6,-,N/A,,Overcast,210,2013-01-08 14:00:00
8:20 AM,17.6,17.6,100,29.79,10.0,South,5.8,-,N/A,,Scattered Clouds,170,2013-01-08 14:20:00
8:40 AM,19.4,19.4,100,29.80,10.0,South,11.5,-,N/A,,Scattered Clouds,180,2013-01-08 14:40:00
9:00 AM,21.2,21.2,100,29.78,10.0,SSE,10.4,-,N/A,,Scattered Clouds,160,2013-01-08 15:00:00
9:20 AM,21.2,21.2,100,29.75,10.0,South,9.2,-,N/A,,Partly Cloudy,170,2013-01-08 15:20:00
9:40 AM,23.0,23.0,100,29.72,10.0,SE,12.7,18.4,N/A,,Mostly Cloudy,140,2013-01-08 15:40:00
10:00 AM,23.0,23.0,100,29.72,10.0,SSE,15.0,-,N/A,,Scattered Clouds,150,2013-01-08 16:00:00
10:20 AM,23.0,23.0,100,29.76,10.0,SSW,10.4,-,N/A,,Clear,210,2013-01-08 16:20:00
10:40 AM,24.8,24.8,100,29.76,10.0,SSW,8.1,-,N/A,,Partly Cloudy,210,2013-01-08 16:40:00
11:00 AM,24.8,24.8,100,29.74,10.0,South,8.1,-,N/A,,Mostly Cloudy,170,2013-01-08 17:00:00
11:20 AM,24.8,24.8,100,29.73,10.0,South,10.4,-,N/A,,Mostly Cloudy,170,2013-01-08 17:20:00
11:40 AM,24.8,24.8,100,29.70,10.0,South,11.5,-,N/A,,Clear,180,2013-01-08 17:40:00
12:20 PM,24.8,24.8,100,29.69,10.0,South,8.1,-,N/A,,Partly Cloudy,190,2013-01-08 18:20:00
12:40 PM,26.6,26.6,100,29.69,10.0,SW,15.0,18.4,N/A,,Partly Cloudy,220,2013-01-08 18:40:00
1:00 PM,28.4,28.4,100,29.70,10.0,SW,15.0,19.6,N/A,,Clear,230,2013-01-08 19:00:00
1:40 PM,28.4,28.4,100,29.70,10.0,WSW,15.0,-,N/A,,Clear,240,2013-01-08 19:40:00
2:00 PM,28.4,28.4,100,29.71,10.0,WSW,11.5,-,N/A,,Clear,240,2013-01-08 20:00:00
2:20 PM,28.4,28.4,100,29.72,10.0,West,12.7,-,N/A,,Clear,260,2013-01-08 20:20:00
2:40 PM,28.4,28.4,100,29.72,10.0,West,11.5,-,N/A,,Clear,270,2013-01-08 20:40:00
3:00 PM,30.2,30.2,100,29.73,10.0,West,11.5,17.3,N/A,,Clear,270,2013-01-08 21:00:00
3:20 PM,32.0,32.0,100,29.75,10.0,WNW,13.8,18.4,N/A,,Clear,290,2013-01-08 21:20:00
3:40 PM,32.0,32.0,100,29.75,10.0,WNW,12.7,-,N/A,,Clear,290,2013-01-08 21:40:00
4:00 PM,32.0,32.0,100,29.76,10.0,West,11.5,-,N/A,,Clear,280,2013-01-08 22:00:00
4:20 PM,32.0,32.0,100,29.78,10.0,West,12.7,18.4,N/A,,Clear,270,2013-01-08 22:20:00
4:40 PM,30.2,30.2,100,29.79,10.0,West,13.8,19.6,N/A,,Clear,270,2013-01-08 22:40:00
5:00 PM,30.2,30.2,100,29.80,10.0,West,15.0,-,N/A,,Clear,280,2013-01-08 23:00:00
5:20 PM,30.2,30.2,100,29.81,10.0,West,15.0,20.7,N/A,,Clear,270,2013-01-08 23:20:00
5:40 PM,32.0,32.0,100,29.83,10.0,West,12.7,-,N/A,,Clear,280,2013-01-08 23:40:00
6:00 PM,32.0,32.0,100,29.84,10.0,West,12.7,18.4,N/A,,Clear,280,2013-01-09 00:00:00
6:20 PM,32.0,32.0,100,29.85,10.0,West,13.8,-,N/A,,Clear,280,2013-01-09 00:20:00
6:40 PM,32.0,32.0,100,29.86,10.0,West,12.7,18.4,N/A,,Clear,270,2013-01-09 00:40:00
7:20 PM,32.0,32.0,100,29.87,10.0,West,13.8,19.6,N/A,,Clear,270,2013-01-09 01:20:00
7:40 PM,32.0,32.0,100,29.88,10.0,West,13.8,20.7,N/A,,Clear,270,2013-01-09 01:40:00
8:00 PM,32.0,32.0,100,29.89,10.0,West,16.1,19.6,N/A,,Scattered Clouds,270,2013-01-09 02:00:00
8:20 PM,32.0,32.0,100,29.90,10.0,West,15.0,19.6,N/A,,Mostly Cloudy,270,2013-01-09 02:20:00
8:40 PM,32.0,32.0,100,29.91,10.0,West,15.0,18.4,N/A,,Mostly Cloudy,270,2013-01-09 02:40:00
9:00 PM,32.0,32.0,100,29.91,10.0,West,11.5,-,N/A,,Scattered Clouds,270,2013-01-09 03:00:00
9:20 PM,32.0,32.0,100,29.93,10.0,West,11.5,-,N/A,,Mostly Cloudy,260,2013-01-09 03:20:00
9:40 PM,32.0,32.0,100,29.94,10.0,West,12.7,-,N/A,,Overcast,260,2013-01-09 03:40:00
10:00 PM,32.0,32.0,100,29.95,10.0,West,15.0,19.6,N/A,,Overcast,270,2013-01-09 04:00:00
10:20 PM,32.0,32.0,100,29.96,10.0,West,12.7,18.4,N/A,,Mostly Cloudy,280,2013-01-09 04:20:00
10:40 PM,32.0,32.0,100,29.97,10.0,West,12.7,19.6,N/A,,Mostly Cloudy,280,2013-01-09 04:40:00
11:00 PM,32.0,32.0,100,29.98,10.0,West,13.8,-,N/A,,Mostly Cloudy,280,2013-01-09 05:00:00
11:40 PM,30.2,30.2,100,30.00,10.0,West,11.5,-,N/A,,Clear,280,2013-01-09 05:40:00